Location: Poughquag
(41.6090°N, 73.6820°W)
Time: 02:56:32
(UTC-04:00)

Altair - Pass Details

Date: 29 May 2020
Orbit: 1501 x 1683 km, 47.2° (Epoch: 06 July)

Event Time Altitude Azimuth Distance (km) Brightness Sun altitude
Rises 23:04:45 0° 231° (SW) 4,822 10.0 -21.8°
Reaches altitude 10° 23:07:50 10° 230° (SW) 3,860 9.4 -22.1°
Maximum altitude 23:17:43 75° 147° (SSE) 1,718 7.5 -22.9°
Drops below altitude 10° 23:27:52 10° 65° (ENE) 3,949 9.7 -23.6°
Sets 23:31:03 0° 64° (ENE) 4,939 10.2 -23.8°
